Home   Weather   El Monte   Past weeks

Flag for USA Past Weather in El Monte, California, USA — Yesterday and Last 2 Weeks

Now
65 °F

Passing clouds.


Feels Like: 65 °F
Forecast: 62 / 80 °F
Wind: No wind

Location: Fullerton Municipal Airport

Current Time: Aug 17, 2017 at 6:48:24 am

Latest Report: Aug 17, 2017 at 6:06 am


Visibility: 10 mi

Pressure: 29.98 "Hg

Humidity: 87%

Dew Point: 61 °F

Location of El MonteLocation

Past Weather in El Monte — Graph

°F

El Monte Temperature Yesterday

Maximum temperature yesterday: 80 °F (at 2:53 pm)
Minimum temperature yesterday: 67 °F (at 2:53 am)
Average temperature yesterday: 72 °F

High & Low Weather Summary for the Past Weeks

 TemperatureHumidityPressure
High92 °F (Aug 2, 1:53 pm)90% (Aug 5, 2:53 am)29.98 "Hg (Aug 5, 2:53 am)
Low65 °F (Aug 9, 5:53 am)43% (Aug 4, 5:53 pm)29.78 "Hg (Aug 11, 6:53 pm)
Average75 °F70%29.89 "Hg
* Reported Aug 2 4:53 am — Aug 17 4:53 am, El Monte. Weather by CustomWeather, © 2017

Note: Actual official high and low records may vary slightly from our data, if they occured in-between our weather recording intervals... More about our weather records

Advertising

El Monte Weather History for the Previous 24 Hours

Scroll right to see more
 ConditionsComfort  
Time TempWeatherWind HumidityBarometerVisibility
4:53 am
Thu, Aug 17
66 °FClear.No wind84%29.96 "Hg10 mi
3:53 am66 °FClear.No wind84%29.95 "Hg10 mi
2:53 am67 °FClear.No wind81%29.96 "Hg10 mi
1:53 am67 °FClear.No wind79%29.96 "Hg10 mi
12:53 am67 °FClear.No wind79%29.96 "Hg10 mi
11:53 pm
Wed, Aug 16
68 °FClear.No wind78%29.95 "Hg10 mi
10:53 pm68 °FClear.No wind78%29.95 "Hg10 mi
9:53 pm69 °FClear.5 mph79%29.94 "Hg10 mi
8:53 pm70 °FClear.3 mph73%29.93 "Hg10 mi
7:53 pm72 °FClear.5 mph68%29.91 "Hg10 mi
6:53 pm75 °FSunny.7 mph62%29.90 "Hg10 mi
5:53 pm75 °FSunny.7 mph62%29.90 "Hg10 mi
4:53 pm76 °FSunny.9 mph62%29.90 "Hg10 mi
3:53 pm77 °FSunny.9 mph58%29.91 "Hg10 mi
2:53 pm80 °FSunny.9 mph52%29.93 "Hg10 mi
1:53 pm79 °FSunny.7 mph52%29.94 "Hg10 mi
12:53 pm78 °FPassing clouds.7 mph54%29.95 "Hg10 mi
11:53 am77 °FSunny.5 mph47%29.97 "Hg10 mi
10:53 am75 °FPassing clouds.No wind52%29.97 "Hg10 mi
9:53 am72 °FOvercast.3 mph59%29.97 "Hg10 mi
8:53 am71 °FOvercast.3 mph61%29.98 "Hg10 mi
7:53 am69 °FOvercast.6 mph66%29.97 "Hg6 mi
6:53 am67 °FPartly sunny.7 mph71%29.96 "Hg9 mi
6:18 am68 °FOvercast.6 mph68%29.95 "Hg10 mi
Weather by CustomWeather, © 2017

See weather overviewHow to use our weather pages